Location: Fours
(44.3167°N, 6.7000°E)
Time: 13:55:45
(UTC+00:00)

Cosmos 2227 - Pass Details

Date: 07 June 2022
Orbit: 833 x 863 km, 71.0° (Epoch: 28 June)

Event Time Altitude Azimuth Distance (km) Brightness Sun altitude
Rises 20:02:41 0° 323° (NW) 3,449 9.5 -7.6°
Reaches altitude 10° 20:05:33 10° 311° (NW) 2,509 8.4 -8.0°
Maximum altitude 20:10:07 25° 258° (WSW) 1,675 6.2 -8.5°
Drops below altitude 10° 20:14:41 10° 205° (SSW) 2,492 6.5 -9.1°
Sets 20:17:31 0° 193° (SSW) 3,421 7.0 -9.5°
